Simultaneous Nadir Overpasses (SNOs) Predictions

Prediction of SNOs between LANDSAT-8 and METOP-B Satellite Orbit:

Table of predicted SNOs for the next 14.0 days since TLE Epoch: 1/1/2016
Index Date (LANDSAT-8) Time (LANDSAT-8) Lat,Lon (LANDSAT-8) SZA (LANDSAT-8 ) Date (METOP-B) Time (METOP-B) Lat,Lon (METOP-B) SZA (METOP-B ) Distance(km) Time Diff (sec)
1 01/01/2016 21:13:27 -81.18, 82.30 73.94 01/01/2016 21:13:13 -81.18, 82.24 73.95 1.11 14
2 01/01/2016 22:02:52 81.21,-109.57 106.13 01/01/2016 22:03:51 81.21,-109.52 106.16 0.85 59
3 01/04/2016 16:47:41 -81.18, 148.78 74.23 01/04/2016 16:47:34 -81.18, 148.62 74.24 2.86 7
4 01/04/2016 17:37:06 81.21, -43.11 105.84 01/04/2016 17:38:12 81.21, -43.15 105.86 0.75 66
5 01/07/2016 11:32:43 80.80, 42.28 104.65 01/07/2016 11:31:29 80.95, 41.98 104.72 17.06 74
6
